TimeCST,TemperatureF,Dew PointF,Humidity,Sea Level PressureIn,VisibilityMPH,Wind Direction,Wind SpeedMPH,Gust SpeedMPH,PrecipitationIn,Events,Conditions,WindDirDegrees,DateUTC
12:15 AM,14.0,10.4,86,30.21,10.0,North,4.6,-,N/A,,Overcast,360,2013-01-01 06:15:00
12:35 AM,14.0,10.4,86,30.21,10.0,North,4.6,-,N/A,,Overcast,360,2013-01-01 06:35:00
12:55 AM,14.0,10.4,86,30.21,10.0,North,4.6,-,N/A,,Overcast,360,2013-01-01 06:55:00
1:15 AM,14.0,10.4,86,30.21,10.0,North,4.6,-,N/A,,Overcast,350,2013-01-01 07:15:00
1:35 AM,12.2,8.6,85,30.22,10.0,North,5.8,-,N/A,,Overcast,350,2013-01-01 07:35:00
2:15 AM,10.4,8.6,92,30.22,9.0,Calm,Calm,-,N/A,,Overcast,0,2013-01-01 08:15:00
2:35 AM,10.4,8.6,92,30.23,8.0,NNW,4.6,-,N/A,,Overcast,340,2013-01-01 08:35:00
2:55 AM,10.4,6.8,85,30.24,9.0,Calm,Calm,-,N/A,,Overcast,0,2013-01-01 08:55:00
3:15 AM,8.6,5.0,85,30.23,9.0,North,4.6,-,N/A,,Scattered Clouds,350,2013-01-01 09:15:00
3:35 AM,8.6,5.0,85,30.23,8.0,North,3.5,-,N/A,,Mostly Cloudy,360,2013-01-01 09:35:00
3:55 AM,6.8,5.0,92,30.24,8.0,Calm,Calm,-,N/A,,Overcast,0,2013-01-01 09:55:00
4:15 AM,8.6,5.0,85,30.23,7.0,Calm,Calm,-,N/A,,Scattered Clouds,0,2013-01-01 10:15:00
4:35 AM,6.8,5.0,92,30.23,8.0,NNW,3.5,-,N/A,,Clear,340,2013-01-01 10:35:00
4:55 AM,8.6,6.8,92,30.23,8.0,Calm,Calm,-,N/A,,Clear,0,2013-01-01 10:55:00
5:15 AM,6.8,5.0,92,30.22,8.0,North,3.5,-,N/A,,Clear,10,2013-01-01 11:15:00
5:35 AM,6.8,5.0,92,30.22,7.0,Calm,Calm,-,N/A,,Clear,0,2013-01-01 11:35:00
5:55 AM,6.8,5.0,92,30.22,5.0,Calm,Calm,-,N/A,,Clear,0,2013-01-01 11:55:00
6:15 AM,6.8,5.0,92,30.22,3.0,Calm,Calm,-,N/A,,Clear,0,2013-01-01 12:15:00
6:35 AM,5.0,-0.4,78,30.22,7.0,Calm,Calm,-,N/A,,Clear,0,2013-01-01 12:35:00
6:55 AM,3.2,-0.4,85,30.22,7.0,Calm,Calm,-,N/A,,Clear,0,2013-01-01 12:55:00
7:15 AM,3.2,-0.4,85,30.23,3.0,Calm,Calm,-,N/A,,Scattered Clouds,0,2013-01-01 13:15:00
7:35 AM,5.0,1.4,85,30.24,3.0,Calm,Calm,-,N/A,,Overcast,0,2013-01-01 13:35:00
7:55 AM,3.2,-0.4,85,30.24,0.2,Calm,Calm,-,N/A,Fog,Light Freezing Fog,0,2013-01-01 13:55:00
8:15 AM,3.2,-0.4,85,30.24,0.2,Calm,Calm,-,N/A,Fog,Light Freezing Fog,0,2013-01-01 14:15:00
8:35 AM,3.2,-0.4,85,30.25,0.2,Calm,Calm,-,N/A,Fog,Light Freezing Fog,0,2013-01-01 14:35:00
8:55 AM,1.4,-0.4,92,30.25,0.2,Calm,Calm,-,N/A,Snow,Heavy Snow,0,2013-01-01 14:55:00
9:15 AM,3.2,-0.4,85,30.26,0.2,Calm,Calm,-,N/A,Fog,Light Freezing Fog,0,2013-01-01 15:15:00
9:35 AM,5.0,1.4,85,30.27,0.2,Calm,Calm,-,N/A,Fog,Light Freezing Fog,0,2013-01-01 15:35:00
9:55 AM,6.8,3.2,85,30.27,0.2,Calm,Calm,-,N/A,Fog,Light Freezing Fog,0,2013-01-01 15:55:00
10:15 AM,8.6,5.0,85,30.28,0.2,Calm,Calm,-,N/A,Snow,Heavy Snow,0,2013-01-01 16:15:00
10:35 AM,8.6,6.8,92,30.28,0.8,Calm,Calm,-,N/A,Snow,Light Snow,0,2013-01-01 16:35:00
10:55 AM,8.6,6.8,92,30.28,1.5,Calm,Calm,-,N/A,Snow,Light Snow,0,2013-01-01 16:55:00
11:15 AM,8.6,6.8,92,30.28,2.5,WSW,6.9,-,N/A,Snow,Light Snow,240,2013-01-01 17:15:00
11:35 AM,10.4,6.8,85,30.26,5.0,SW,8.1,-,N/A,Snow,Light Snow,230,2013-01-01 17:35:00
11:55 AM,10.4,8.6,92,30.26,5.0,SW,8.1,-,N/A,,Scattered Clouds,230,2013-01-01 17:55:00
12:15 PM,14.0,10.4,86,30.25,1.5,SW,8.1,-,N/A,,Overcast,230,2013-01-01 18:15:00
12:35 PM,14.0,12.2,93,30.23,1.8,SW,9.2,-,N/A,,Overcast,230,2013-01-01 18:35:00
12:55 PM,15.8,12.2,86,30.22,2.5,Calm,Calm,-,N/A,,Overcast,0,2013-01-01 18:55:00
1:15 PM,15.8,14.0,93,30.21,3.0,SSW,9.2,-,N/A,Snow,Light Snow,210,2013-01-01 19:15:00
1:35 PM,15.8,14.0,93,30.20,3.0,SW,11.5,-,N/A,,Overcast,220,2013-01-01 19:35:00
1:55 PM,15.8,14.0,93,30.19,3.0,SW,11.5,-,N/A,,Overcast,220,2013-01-01 19:55:00
2:15 PM,17.6,14.0,86,30.19,4.0,SSW,11.5,-,N/A,,Mostly Cloudy,210,2013-01-01 20:15:00
2:35 PM,17.6,15.8,93,30.18,5.0,SW,10.4,-,N/A,,Scattered Clouds,220,2013-01-01 20:35:00
2:55 PM,17.6,15.8,93,30.18,6.0,SW,11.5,-,N/A,,Clear,220,2013-01-01 20:55:00
3:15 PM,17.6,15.8,93,30.18,7.0,SW,9.2,-,N/A,,Clear,220,2013-01-01 21:15:00
3:35 PM,17.6,15.8,93,30.18,8.0,SW,10.4,-,N/A,,Clear,220,2013-01-01 21:35:00
3:55 PM,17.6,15.8,93,30.17,9.0,SW,10.4,-,N/A,,Clear,220,2013-01-01 21:55:00
4:15 PM,17.6,15.8,93,30.17,9.0,SSW,8.1,-,N/A,,Clear,210,2013-01-01 22:15:00
4:35 PM,17.6,14.0,86,30.16,10.0,SSW,3.5,-,N/A,,Clear,210,2013-01-01 22:35:00
4:55 PM,15.8,14.0,93,30.16,9.0,SW,9.2,-,N/A,,Clear,220,2013-01-01 22:55:00
5:15 PM,15.8,14.0,93,30.15,9.0,Calm,Calm,-,N/A,,Clear,0,2013-01-01 23:15:00
5:35 PM,15.8,14.0,93,30.14,9.0,SSW,10.4,-,N/A,,Clear,210,2013-01-01 23:35:00
5:55 PM,15.8,12.2,86,30.14,10.0,SSW,12.7,-,N/A,,Clear,210,2013-01-01 23:55:00
6:15 PM,14.0,10.4,86,30.14,10.0,SSW,10.4,-,N/A,,Clear,210,2013-01-02 00:15:00
6:35 PM,14.0,10.4,86,30.14,10.0,SW,11.5,-,N/A,,Clear,220,2013-01-02 00:35:00
6:55 PM,14.0,10.4,86,30.13,9.0,SSW,11.5,-,N/A,,Clear,210,2013-01-02 00:55:00
7:15 PM,14.0,10.4,86,30.13,10.0,SW,11.5,-,N/A,,Clear,220,2013-01-02 01:15:00
7:35 PM,14.0,10.4,86,30.13,10.0,SW,11.5,-,N/A,,Clear,220,2013-01-02 01:35:00
7:55 PM,15.8,12.2,86,30.13,10.0,WSW,11.5,-,N/A,,Clear,240,2013-01-02 01:55:00
8:15 PM,15.8,12.2,86,30.13,10.0,WSW,11.5,-,N/A,,Clear,240,2013-01-02 02:15:00
8:35 PM,15.8,12.2,86,30.12,10.0,WSW,12.7,-,N/A,,Clear,240,2013-01-02 02:35:00
8:55 PM,15.8,12.2,86,30.11,10.0,SW,11.5,-,N/A,,Clear,230,2013-01-02 02:55:00
9:15 PM,15.8,10.4,79,30.11,10.0,WSW,11.5,-,N/A,,Clear,250,2013-01-02 03:15:00
9:35 PM,15.8,10.4,79,30.10,10.0,WSW,9.2,-,N/A,,Clear,250,2013-01-02 03:35:00
9:55 PM,14.0,10.4,86,30.09,10.0,WSW,10.4,-,N/A,,Clear,250,2013-01-02 03:55:00
10:15 PM,14.0,10.4,86,30.09,10.0,WSW,13.8,-,N/A,,Clear,250,2013-01-02 04:15:00
10:35 PM,14.0,8.6,79,30.09,10.0,WSW,12.7,-,N/A,,Clear,240,2013-01-02 04:35:00
10:55 PM,14.0,8.6,79,30.09,10.0,SW,10.4,-,N/A,,Clear,230,2013-01-02 04:55:00
11:15 PM,14.0,8.6,79,30.09,10.0,SW,12.7,-,N/A,,Clear,230,2013-01-02 05:15:00
11:35 PM,12.2,6.8,79,30.09,10.0,SW,9.2,-,N/A,,Clear,230,2013-01-02 05:35:00
11:55 PM,12.2,6.8,79,30.08,10.0,WSW,13.8,-,N/A,,Clear,250,2013-01-02 05:55:00